Location: Pilipovskiye Korichintsy
(49.1833°N, 27.4667°E)
Time: 01:06:25
(UTC+00:00)

Landsat 5 - Visible Passes

Search period start: 24 October 2020 00:00
Search period end: 03 November 2020 00:00
Orbit: 528 x 655 km, 98.2° (Epoch: 23 October)

Date Brightness Start Highest point End Pass type
(mag) Time Alt. Az. Time Alt. Az. Time Alt. Az.
24 Oct 6.1 16:23:02 10° NNW 16:25:44 18° WNW 16:28:26 10° WSW visible
25 Oct 6.2 16:31:41 10° NNW 16:34:02 16° WNW 16:36:24 10° W visible
26 Oct 6.3 16:40:25 10° NNW 16:42:19 13° WNW 16:44:14 10° W visible
27 Oct 6.5 16:49:22 10° NW 16:50:37 11° WNW 16:51:52 10° WNW visible
28 Oct 3.5 15:20:10 10° NNE 15:24:03 77° WNW 15:28:01 10° SSW visible
29 Oct 3.9 15:28:33 10° N 15:32:25 63° WNW 15:36:21 10° SSW visible
30 Oct 4.3 15:36:58 10° N 15:40:46 51° WNW 15:44:40 10° SSW visible
31 Oct 4.7 15:45:25 10° N 15:49:07 42° WNW 15:52:55 10° SW visible
01 Nov 5.0 15:53:52 10° N 15:57:27 35° WNW 16:01:09 10° SW visible
02 Nov 5.3 16:02:20 10° N 16:05:48 30° WNW 16:09:19 10° SW visible
